Location: *
(32.8667°N, 13.1833°E)
Time: 10:18:14
(UTC+00:00)

CZ-2C R/B - Pass Details

Date: 18 July 2019
Orbit: 704 x 908 km, 98.1° (Epoch: 25 August)

Event Time Altitude Azimuth Distance (km) Brightness Sun altitude
Exits shadow 20:33:40 23° 208° (SSW) 1,712 4.6 -24.0°
Maximum altitude 20:36:28 39° 261° (W) 1,225 4.2 -24.4°
Drops below altitude 10° 20:41:23 10° 330° (NNW) 2,374 6.6 -25.1°
Sets 20:43:48 0° 338° (NNW) 3,275 7.5 -25.4°
